Weather History for KRPJ - March, 2015

Change the Weather History Date:

Thursday, March 12, 2015

  Actual Average (KRFD) Record (KRFD)
Temperature  
Mean Temperature 40 °F 36 °F  
Max Temperature 52 °F 45 °F 78 °F (1990)
Min Temperature 29 °F 26 °F -3 °F (1948)
Degree Days  
Heating Degree Days 24 29  
Month to date heating degree days 381  
Since 1 July heating degree days 5383  
Cooling Degree Days 0 0  
Month to date cooling degree days 0  
Year to date cooling degree days 0  
Moisture  
Dew Point 33 °F    
Average Humidity 78    
Maximum Humidity 93    
Minimum Humidity 61    
Precipitation  
Precipitation 0.03 in 0.06 in 1.80 in (1923)
Month to date precipitation 0.78  
Year to date precipitation 3.56  
Snow  
Snow 0.00 in 0.10 in 9.00 in (1923)
Month to date snowfall 2.4  
Since 1 July snowfall 33.4  
Snow Depth -    
Sea Level Pressure  
Sea Level Pressure 30.41 in    
Wind  
Wind Speed 8 mph (SE)    
Max Wind Speed 22 mph    
Max Gust Speed 23 mph    
Visibility 9 miles    
Events      
T = Trace of Precipitation, MM = Missing Value Source: NWS Daily Summary

Daily Weather History Graph

Daily Weather History Graph

Search for Another Location

Airport or City:

Trip Planner

Search our weather history database for the weather conditions in past years. The results will help you decide how hot, cold, wet, or windy it might be!

Date:

Astronomy

Mar. 12, 2015 Rise Set
Actual Time 7:13 AM CDT 6:59 PM CDT
Civil Twilight 6:45 AM CDT 7:27 PM CDT
Nautical Twilight 6:13 AM CDT 7:59 PM CDT
Astronomical Twilight 5:40 AM CDT 8:32 PM CDT
Moon 12:49 AM CDT (3/12) 11:01 AM CDT (3/12)
Length of Visible Light 12h 41m
Length of Day
11h 45m
Waning Gibbous, 61% of the Moon is Illuminated
Mar 12
Waning Gibbous
Mar 13
Last Quarter
Mar 20
New
Mar 27
First Quarter
Apr 4
Full

Hourly Weather History & Observations

Time (CDT) Temp. Windchill Dew Point Humidity Pressure Visibility Wind Dir Wind Speed Gust Speed Precip Events Conditions
12:15 AM 32.9 °F 27.5 °F 28.2 °F 83% 30.44 in 10.0 mi SSE 5.8 mph - N/A   Clear
12:35 AM 33.3 °F 25.7 °F 27.7 °F 80% 30.43 in 10.0 mi SE 9.2 mph - N/A   Clear
12:55 AM 32.5 °F 26.2 °F 27.5 °F 82% 30.43 in 10.0 mi SE 6.9 mph - N/A   Clear
1:15 AM 32.0 °F 28.7 °F 27.1 °F 82% 30.43 in 10.0 mi ESE 3.5 mph - N/A   Clear
1:35 AM 34.5 °F 30.4 °F 25.7 °F 70% 30.43 in 10.0 mi East 4.6 mph - N/A   Clear
1:55 AM 31.5 °F - 26.6 °F 82% 30.44 in 10.0 mi Calm Calm - N/A   Clear
2:15 AM 31.8 °F 27.3 °F 26.8 °F 82% 30.44 in 10.0 mi ESE 4.6 mph - N/A   Clear
2:35 AM 30.4 °F 25.6 °F 26.1 °F 84% 30.44 in 10.0 mi ENE 4.6 mph - N/A   Clear
2:55 AM 32.0 °F 27.5 °F 26.6 °F 80% 30.44 in 10.0 mi East 4.6 mph - N/A   Clear
3:15 AM 30.2 °F 25.4 °F 27.5 °F 90% 30.44 in 10.0 mi SE 4.6 mph - N/A   Clear
3:35 AM 31.5 °F 28.1 °F 27.5 °F 85% 30.44 in 10.0 mi SE 3.5 mph - N/A   Clear
3:55 AM 30.6 °F 27.1 °F 27.9 °F 90% 30.44 in 10.0 mi SE 3.5 mph - N/A   Clear
4:15 AM 30.2 °F - 27.0 °F 88% 30.44 in 10.0 mi Calm Calm - N/A   Clear
4:35 AM 31.6 °F - 26.4 °F 81% 30.44 in 10.0 mi Calm Calm - N/A   Clear
4:55 AM 30.7 °F 24.9 °F 26.8 °F 85% 30.44 in 10.0 mi SE 5.8 mph - N/A   Clear
5:15 AM 30.9 °F 27.5 °F 26.1 °F 82% 30.44 in 10.0 mi ESE 3.5 mph - N/A   Clear
5:35 AM 31.6 °F 27.0 °F 26.1 °F 80% 30.44 in 10.0 mi East 4.6 mph - N/A   Clear
5:55 AM 31.8 °F 26.2 °F 25.7 °F 78% 30.44 in 10.0 mi East 5.8 mph - N/A   Clear
6:15 AM 31.5 °F 26.8 °F 25.9 °F 80% 30.44 in 10.0 mi East 4.6 mph - N/A   Clear
6:35 AM 32.4 °F 26.9 °F 25.2 °F 75% 30.44 in 10.0 mi East 5.8 mph - N/A   Clear
6:55 AM 29.8 °F 23.0 °F 25.7 °F 85% 30.44 in 10.0 mi East 6.9 mph - N/A   Clear
7:15 AM 30.2 °F 25.4 °F 26.4 °F 86% 30.45 in 10.0 mi ESE 4.6 mph - N/A   Clear
7:35 AM 31.3 °F 26.6 °F 25.7 °F 80% 30.45 in 10.0 mi East 4.6 mph - N/A   Clear
7:55 AM 31.6 °F 27.0 °F 26.8 °F 82% 30.45 in 10.0 mi ESE 4.6 mph - N/A   Clear
8:15 AM 33.1 °F 26.1 °F 28.2 °F 82% 30.46 in 10.0 mi SE 8.1 mph - N/A   Clear
8:35 AM 34.7 °F 27.5 °F 28.4 °F 78% 30.46 in 10.0 mi SE 9.2 mph - N/A   Clear
8:55 AM 35.4 °F 28.4 °F 29.3 °F 78% 30.46 in 10.0 mi SE 9.2 mph - N/A   Clear
9:15 AM 36.1 °F 29.9 °F 30.9 °F 81% 30.47 in 10.0 mi SE 8.1 mph - N/A   Clear
9:35 AM 37.8 °F 31.3 °F 31.6 °F 79% 30.47 in 10.0 mi SE 9.2 mph - N/A   Clear
9:55 AM 39.4 °F 32.3 °F 32.2 °F 75% 30.48 in 10.0 mi SE 11.5 mph - N/A   Clear
10:15 AM 40.5 °F 32.8 °F 32.2 °F 72% 30.48 in 10.0 mi SE 13.8 mph - N/A   Clear
10:35 AM 41.2 °F 33.7 °F 32.9 °F 72% 30.48 in 10.0 mi SE 13.8 mph - N/A   Clear
10:55 AM 42.3 °F 35.5 °F 34.2 °F 73% 30.48 in 10.0 mi SE 12.7 mph - N/A   Clear
11:15 AM 43.9 °F 37.5 °F 34.0 °F 68% 30.48 in 10.0 mi SE 12.7 mph - N/A   Clear
11:35 AM - - - N/A% - - North - - N/A   Unknown
11:55 AM 45.5 °F 38.6 °F 35.6 °F 68% 30.47 in 7.0 mi SSE 16.1 mph - 0.03 in   Scattered Clouds
12:15 PM 46.2 °F 39.5 °F 36.7 °F 69% 30.47 in 7.0 mi SSE 16.1 mph - N/A   Clear
12:35 PM 47.3 °F - 37.4 °F 68% 30.46 in 7.0 mi SE 18.4 mph 21.9 mph N/A   Clear
12:55 PM 48.4 °F - 37.2 °F 65% 30.46 in 10.0 mi SE 18.4 mph 23.0 mph N/A   Clear
1:15 PM 48.9 °F - 36.1 °F 61% 30.45 in 10.0 mi SSE 21.9 mph - N/A   Clear
1:35 PM 49.3 °F - 37.8 °F 65% 30.44 in 10.0 mi SSE 19.6 mph 23.0 mph N/A   Clear
1:55 PM 50.0 °F - 37.9 °F 63% 30.44 in 10.0 mi SSE 18.4 mph - N/A   Clear
2:15 PM 50.2 °F - 38.7 °F 65% 30.43 in 10.0 mi SSE 16.1 mph 19.6 mph N/A   Clear
2:35 PM 50.0 °F - 39.0 °F 66% 30.42 in 10.0 mi SE 15.0 mph - N/A   Clear
2:55 PM 50.9 °F - 39.2 °F 64% 30.41 in 10.0 mi SSE 15.0 mph - N/A   Clear
3:15 PM 51.3 °F - 39.2 °F 63% 30.40 in 10.0 mi SE 15.0 mph - N/A   Clear
3:35 PM 51.8 °F - 39.7 °F 63% 30.40 in 10.0 mi SSE 16.1 mph - N/A   Clear
3:55 PM 51.8 °F - 39.2 °F 62% 30.39 in 10.0 mi SE 12.7 mph - N/A   Clear
4:35 PM 52.2 °F - 39.4 °F 62% 30.38 in 10.0 mi SE 10.4 mph - N/A   Clear
4:55 PM 52.2 °F - 40.1 °F 64% 30.37 in 10.0 mi SE 11.5 mph - N/A   Clear
5:15 PM 51.8 °F - 40.3 °F 65% 30.36 in 10.0 mi SE 8.1 mph - N/A   Clear
5:35 PM 51.4 °F - 41.4 °F 68% 30.36 in 10.0 mi SSE 8.1 mph - N/A   Clear
5:55 PM 50.2 °F - 41.9 °F 73% 30.35 in 10.0 mi SE 6.9 mph - N/A   Clear
6:15 PM 48.9 °F - 40.8 °F 74% 30.35 in 10.0 mi SE 8.1 mph - N/A   Clear
6:35 PM 46.4 °F 42.9 °F 39.6 °F 77% 30.35 in 10.0 mi SE 6.9 mph - N/A   Clear
6:55 PM 43.7 °F 39.7 °F 38.3 °F 81% 30.35 in 10.0 mi SE 6.9 mph - N/A   Clear
7:15 PM 41.0 °F 35.8 °F 37.0 °F 86% 30.35 in 10.0 mi SE 8.1 mph - N/A   Clear
7:35 PM 39.2 °F 34.2 °F 35.6 °F 87% 30.36 in 10.0 mi SE 6.9 mph - N/A   Clear
7:55 PM 38.5 °F 32.7 °F 35.6 °F 89% 30.35 in 10.0 mi SE 8.1 mph - N/A   Clear
8:15 PM 36.5 °F 29.7 °F 34.2 °F 91% 30.35 in 7.0 mi SE 9.2 mph - N/A   Clear
8:35 PM 36.5 °F 29.7 °F 33.8 °F 90% 30.34 in 7.0 mi SE 9.2 mph - N/A   Clear
8:55 PM 35.4 °F 30.5 °F 32.9 °F 91% 30.34 in 7.0 mi ESE 5.8 mph - N/A   Clear
9:15 PM 34.7 °F 28.1 °F 32.9 °F 93% 30.34 in 7.0 mi ESE 8.1 mph - N/A   Clear
9:35 PM 36.1 °F 29.9 °F 33.1 °F 89% 30.34 in 10.0 mi SE 8.1 mph - N/A   Clear
9:55 PM 35.4 °F 31.5 °F 32.5 °F 89% 30.34 in 7.0 mi SE 4.6 mph - N/A   Clear
10:15 PM 36.0 °F 30.3 °F 32.9 °F 89% 30.33 in 7.0 mi ESE 6.9 mph - N/A   Clear
10:35 PM 36.3 °F 30.8 °F 33.3 °F 89% 30.33 in 7.0 mi SE 6.9 mph - N/A   Clear
10:55 PM 36.9 °F 31.4 °F 33.4 °F 87% 30.32 in 7.0 mi ESE 6.9 mph - N/A   Clear
11:15 PM 36.7 °F 30.5 °F 33.3 °F 87% 30.32 in 7.0 mi ESE 8.1 mph - N/A   Clear
11:35 PM 37.0 °F 31.0 °F 33.3 °F 86% 30.32 in 7.0 mi ESE 8.1 mph - N/A   Clear
11:55 PM 36.9 °F 30.1 °F 33.1 °F 86% 30.32 in 10.0 mi ESE 9.2 mph - N/A   Clear